[[{"header":{"parameterUnit":"m.s-1","parameterCategory":1,"la1":30.2991,"la2":30.254,"lo1":-89.0895,"lo2":-89.0444,"dy":0.0017,"dx":0.0017,"nx":28,"ny":28,"refTime":"2025-06-06T03:00:00:Z","depth":0,"parameterNumber":2,"parameterNumberName":"U-component_of_WINDS"},"data":[0,0,0,0,0,0,0,0,0,0,0,0,0,0,0,0,0,0,0,0,0,0,0,0,0,0,0,0,0,0,0,0,0,0,0,0,0,0,0,0,0,0,0,0,0,0,0,0,0,0,0,0,0,0,0,0,0,0,4.034,4.0341,0,4.0376,4.0376,4.0377,4.0291,4.0288,4.0286,4.0283,4.0318,4.0322,4.0325,0,0,0,0,0,0,0,0,0,0,0,0,0,4.0196,4.0199,4.034,4.0341,4.0341,4.0376,4.0376,4.0377,4.0292,4.0288,4.0285,4.0282,4.0317,4.0321,4.0325,0,0,0,0,0,0,0,0,0,0,0,0,0,4.0248,4.02,4.034,4.0303,4.03,4.0376,4.0376,4.0377,4.0292,4.0288,4.0284,4.028,4.0316,4.0321,4.0326,4.0439,0,0,4.0342,4.0344,0,0,0,0,0,0,0,0,4.0245,4.0253,4.0308,4.0306,4.0302,4.0325,4.0338,4.0398,4.0293,4.0295,4.0283,4.0278,4.0324,4.0328,4.0344,4.0441,4.0442,4.0342,4.0345,4.0348,4.0349,0,0,0,0,0,0,0,4.0242,4.0251,4.0354,4.0309,4.0306,4.0284,4.0286,4.0349,4.0332,4.0295,4.0289,4.0294,4.0321,4.0339,4.0344,4.0443,4.0342,4.0347,4.035,4.0352,4.0632,4.0636,0,0,0,0,0,0,4.0243,4.0249,4.0353,4.0355,4.0263,4.0289,4.0293,4.0322,4.0331,4.0328,4.0297,4.029,4.0332,4.0338,4.0345,4.0475,4.0348,4.0352,4.0355,4.0627,4.0633,4.0637,0,0,0,0,0,0,4.024,4.0253,4.0352,4.0301,4.0311,4.0296,4.033,4.0325,4.0342,4.0333,4.0329,4.0318,4.0329,4.0337,4.0416,4.0475,4.0355,4.036,4.0622,4.0629,4.0635,4.0739,0,0,0,0,0,0,4.0237,4.0253,4.0296,4.0302,4.0315,4.0423,4.0333,4.0328,4.0351,4.0342,4.0352,4.0349,4.0326,4.0408,4.0421,4.048,4.0364,4.0617,4.0625,4.0633,4.073,4.0748,4.0763,0,0,0,0,0,4.0232,4.0325,4.0299,4.0312,4.0369,4.0427,4.0434,4.0406,4.0356,4.0399,4.0393,4.0349,4.0467,4.0417,4.043,4.0492,4.0613,4.0623,4.0632,4.0722,4.0744,4.0763,0,0,0,0,0,0,4.0326,4.0325,4.0296,4.0394,4.0411,4.0412,4.0466,4.0431,4.0462,4.0452,4.0415,4.0418,4.0503,4.0506,4.045,4.0601,4.0531,4.0544,4.0595,4.0616,4.0633,4.0629,4.0368,0,0,0,0,0,4.0358,4.0406,4.0402,4.0489,4.0499,4.0481,4.0506,4.0482,4.0499,4.0505,4.0505,4.0522,4.0562,4.059,4.0627,4.0731,4.073,4.0779,4.0796,4.081,4.0821,4.0872,4.0893,4.0669,4.0669,4.0669,0,0,4.0425,4.043,4.0463,4.0508,4.0518,4.0567,4.0488,4.0544,4.0579,4.0514,4.0587,4.0588,4.0604,4.0694,4.0734,4.0699,4.0883,4.0822,4.0833,4.0836,4.0884,4.0906,4.0924,4.0676,4.0675,4.0674,0,0,4.0571,4.0582,4.0653,4.0665,4.0682,4.0669,4.0687,4.0693,4.0691,4.0764,4.0715,4.0757,4.0828,4.0841,4.0857,4.1007,4.0966,4.102,4.1106,4.1157,4.1175,4.119,4.1241,4.1259,4.1031,4.1032,4.1032,0,4.0652,4.0724,4.0694,4.0753,4.0773,4.0716,4.0787,4.08,4.0829,4.0843,4.0804,4.0891,4.0898,4.0989,4.1026,4.1042,4.1059,4.1017,4.1175,4.119,4.1204,4.1251,4.1271,4.1038,4.1037,4.1036,4.1036,0,4.0821,4.0872,4.0928,4.0956,4.0982,4.1048,4.1026,4.1056,4.1031,4.1022,4.1096,4.1103,4.1139,4.116,4.1136,4.1247,4.1224,4.1181,4.111,4.1232,4.1276,4.1294,4.1047,4.1044,4.1043,4.1041,0,0,4.1026,4.1036,4.1057,4.1067,4.1082,4.112,4.1182,4.1217,4.1242,4.1265,4.1313,4.1375,4.1334,4.1352,4.1329,4.1375,4.1489,4.1325,4.1325,4.1352,4.1608,4.1638,4.166,4.1463,4.1467,4.147,4.1605,0,4.1167,4.1273,4.1247,4.1351,4.1396,4.1342,4.1396,4.141,4.1403,4.144,4.1433,4.1475,4.142,4.143,4.1473,4.1466,4.1539,4.1456,4.1506,4.1508,4.15,4.1683,4.1716,4.1843,4.1623,4.1626,4.1628,0,4.1346,4.1373,4.1482,4.1486,4.1504,4.1553,4.1582,4.1619,4.1633,4.1625,4.1645,4.1613,4.1672,4.1603,4.1682,4.1626,4.1646,4.1645,4.165,4.165,4.1573,4.1686,4.1884,4.1902,4.1655,4.1653,4.1651,0,4.148,4.1545,4.1617,4.1628,4.1637,4.1671,4.1677,4.1687,4.1709,4.1735,4.1748,4.1781,4.1798,4.1823,4.18,4.1753,4.1882,4.1812,4.1875,4.1876,4.1902,4.19,4.2103,4.1921,4.192,4.192,4.192,0,4.1638,4.1706,4.1677,4.1721,4.1794,4.1764,4.1837,4.1836,4.1846,4.1887,4.1845,4.1885,4.1853,4.1891,4.1873,4.194,4.1949,4.1942,4.1936,4.1944,4.1945,4.1954,4.1943,4.1925,4.1924,4.1923,4.1922,0,4.1799,4.1783,4.1857,4.1859,4.1861,4.1915,4.1916,4.1956,4.1947,4.2,4.2011,4.1996,4.2037,4.2017,4.2061,4.2049,4.2134,4.2118,4.2129,4.2123,4.2186,4.2179,4.2399,4.2425,4.2229,4.2231,4.2233,0,4.19,4.195,4.1957,4.1982,4.199,4.2031,4.2053,4.2025,4.205,4.2069,4.2107,4.2144,4.2173,4.2241,4.2233,4.2266,4.2248,4.2323,4.2252,4.2258,4.2245,4.224,4.2244,4.2336,4.2338,4.234,4.2341,0,4.2078,4.2067,4.2101,4.2132,4.216,4.2183,4.2202,4.2225,4.2197,4.2227,4.2269,4.2291,4.2335,4.2371,4.24,4.2403,4.2367,4.2364,4.238,4.2386,4.2389,4.2385,4.2164,4.2358,4.2357,4.2355,4.2354,4.2354,4.2209,4.2251,4.2261,4.23,4.2311,4.233,4.2367,4.2362,4.2396,4.2429,4.2411,4.2459,4.247,4.2504,4.2513,4.2549,4.252,4.2543,4.2548,4.2554,4.256,4.2387,4.2555,4.2555,4.2554,4.2554,4.2553,0,4.2383,4.2387,4.2423,4.245,4.248,4.2445,4.2464,4.2491,4.2534,4.2548,4.2576,4.2623,4.2659,4.2654,4.2686,4.2716,4.27,4.2725,4.272,4.2721,4.2587,4.2569,4.2737,4.2737,4.2737,4.2737,4.2737,4.2737,4.2476,4.2543,4.2533,4.2605,4.2608,4.2655,4.2668,4.2685,4.2695,4.2749,4.2778,4.2775,4.2781,4.2813,4.2844,4.2841,4.2853,4.2884,4.2875,4.2749,4.2731,4.2714,4.2696,4.2888,4.2888,4.3006,4.3007,4.3008]},{"header":{"parameterUnit":"m.s-1","parameterCategory":1,"la1":30.2991,"la2":30.254,"lo1":-89.0895,"lo2":-89.0444,"dy":0.0017,"dx":0.0017,"nx":28,"ny":28,"refTime":"2025-06-06T03:00:00:Z","depth":0,"parameterNumber":3,"parameterNumberName":"V-component_of_WINDS"},"data":[0,0,0,0,0,0,0,0,0,0,0,0,0,0,0,0,0,0,0,0,0,0,0,0,0,0,0,0,0,0,0,0,0,0,0,0,0,0,0,0,0,0,0,0,0,0,0,0,0,0,0,0,0,0,0,0,0,0,6.8552,6.8553,0,6.8677,6.8678,6.868,6.8662,6.866,6.8658,6.8656,6.8776,6.8781,6.8786,0,0,0,0,0,0,0,0,0,0,0,0,0,6.8288,6.8293,6.8551,6.8553,6.8555,6.8677,6.8679,6.868,6.8662,6.866,6.8657,6.8655,6.8775,6.8781,6.8787,0,0,0,0,0,0,0,0,0,0,0,0,0,6.8407,6.8294,6.8551,6.8561,6.8563,6.8677,6.8679,6.8681,6.8663,6.866,6.8657,6.8654,6.8773,6.878,6.8788,6.8898,0,0,6.8811,6.8815,0,0,0,0,0,0,0,0,6.84,6.8416,6.8558,6.856,6.8563,6.8651,6.863,6.8753,6.8664,6.8625,6.8656,6.8652,6.8737,6.8747,6.8777,6.8903,6.8908,6.8812,6.8817,6.882,6.8822,0,0,0,0,0,0,0,6.8392,6.8411,6.8601,6.856,6.8563,6.8556,6.8569,6.8653,6.8696,6.8628,6.8627,6.8642,6.8737,6.877,6.878,6.891,6.8812,6.8819,6.8823,6.8826,6.913,6.9133,0,0,0,0,0,0,6.8382,6.8404,6.8597,6.8605,6.8472,6.8563,6.8578,6.8626,6.8695,6.8703,6.8645,6.8641,6.8758,6.8771,6.8784,6.8916,6.882,6.8827,6.8832,6.9127,6.9131,6.9135,0,0,0,0,0,0,6.8377,6.84,6.8592,6.8504,6.8528,6.8571,6.8624,6.863,6.8662,6.8708,6.8715,6.8671,6.8756,6.8773,6.887,6.892,6.8831,6.8838,6.9123,6.9128,6.9133,6.9181,0,0,0,0,0,0,6.8369,6.8398,6.8442,6.8506,6.8533,6.8678,6.8628,6.8634,6.8677,6.8673,6.8734,6.8742,6.8755,6.8858,6.8877,6.8929,6.8844,6.9118,6.9125,6.9131,6.9175,6.9187,6.9197,0,0,0,0,0,6.836,6.8449,6.8444,6.8468,6.859,6.8681,6.8696,6.8713,6.8681,6.8724,6.8753,6.874,6.8912,6.8868,6.889,6.8944,6.9115,6.9123,6.9131,6.917,6.9185,6.9197,0,0,0,0,0,0,6.8388,6.8458,6.8453,6.8566,6.8618,6.8678,6.8733,6.8728,6.8788,6.8781,6.8796,6.881,6.8907,6.8935,6.8886,6.9053,6.9009,6.9021,6.9031,6.9045,6.9056,6.9047,6.885,0,0,0,0,0,6.8408,6.8479,6.8535,6.8629,6.8656,6.869,6.873,6.8739,6.8792,6.8813,6.8849,6.8899,6.8964,6.9006,6.9069,6.9179,6.9191,6.9227,6.9238,6.9247,6.9257,6.9315,6.9331,6.916,6.916,6.916,0,0,6.8448,6.8495,6.8539,6.8636,6.8677,6.8747,6.8708,6.8785,6.8836,6.8823,6.8917,6.8946,6.9002,6.9105,6.9153,6.9131,6.9307,6.9257,6.9264,6.9269,6.9325,6.9341,6.9355,6.9165,6.9164,6.9164,0,0,6.8558,6.8602,6.8685,6.8727,6.8791,6.8813,6.8833,6.8894,6.8913,6.9008,6.8999,6.9059,6.9172,6.9212,6.9247,6.9371,6.936,6.9391,6.9449,6.9505,6.9519,6.9531,6.9573,6.9588,6.9401,6.9401,6.9401,0,6.86,6.8708,6.8727,6.8805,6.8847,6.8841,6.8923,6.8962,6.9042,6.9069,6.9046,6.9186,6.9224,6.9335,6.9366,6.9395,6.9416,6.9383,6.9516,6.9528,6.9539,6.958,6.9596,6.9405,6.9404,6.9404,6.9404,0,6.8755,6.883,6.8889,6.8969,6.9017,6.9097,6.9125,6.9171,6.9175,6.9199,6.9293,6.9339,6.941,6.9437,6.9441,6.9549,6.9534,6.9513,6.9468,6.9559,6.9597,6.9613,6.9409,6.9408,6.9407,6.9406,0,0,6.8885,6.8975,6.8996,6.9032,6.9101,6.9158,6.9236,6.9308,6.9346,6.9401,6.9465,6.956,6.9541,6.9581,6.9589,6.9639,6.9732,6.9612,6.9613,6.9631,6.9851,6.9865,6.9883,6.9726,6.9729,6.9731,6.9846,0,6.9,6.9142,6.916,6.9284,6.9352,6.9347,6.9414,6.9463,6.9487,6.9546,6.9572,6.9638,6.961,6.9633,6.9683,6.971,6.9776,6.9703,6.9782,6.9785,6.9767,6.9904,6.9919,7.0025,6.9861,6.9864,6.9866,0,6.9154,6.9215,6.9346,6.9406,6.9435,6.9496,6.9562,6.962,6.9673,6.9687,6.9732,6.9734,6.9811,6.9765,6.987,6.9819,6.9853,6.9871,6.9876,6.9882,6.9829,6.9912,7.006,7.0075,6.989,6.9888,6.9886,0,6.9233,6.9349,6.9442,6.9472,6.9544,6.9587,6.9618,6.9669,6.9711,6.9768,6.9795,6.9859,6.9894,6.9943,6.996,6.9926,7.0064,7.002,7.0075,7.0075,7.0103,7.0101,7.0256,7.0128,7.0128,7.0127,7.0127,0,6.9359,6.9438,6.9478,6.9535,6.9623,6.9643,6.9729,6.9758,6.9803,6.9864,6.9863,6.9919,6.994,6.9998,7.0013,7.0096,7.0112,7.0123,7.0126,7.0123,7.0121,7.0143,7.0136,7.0132,7.0131,7.013,7.0129,0,6.9461,6.9492,6.9593,6.9653,6.967,6.9732,6.9783,6.9836,6.986,6.9936,6.9955,6.9991,7.006,7.0083,7.0166,7.0175,7.0272,7.0269,7.0255,7.0254,7.0308,7.0302,7.0482,7.0506,7.0363,7.0365,7.0366,0,6.9539,6.96,6.9668,6.971,6.9744,6.9811,6.9853,6.9874,6.9918,6.9984,7.0029,7.0098,7.0154,7.0264,7.0296,7.0358,7.0355,7.0414,7.0364,7.0359,7.0354,7.0349,7.0354,7.0423,7.0424,7.0425,7.0426,0,6.9672,6.9684,6.9748,6.9816,6.9868,6.9922,6.9975,7.0008,7.0036,7.0085,7.0157,7.0201,7.0286,7.0353,7.0418,7.0446,7.044,7.0442,7.0458,7.0454,7.0443,7.0448,7.0278,7.0437,7.0436,7.0436,7.0435,7.0434,6.9763,6.9817,6.9873,6.9943,6.9986,7.0034,7.0087,7.0119,7.018,7.0253,7.0261,7.0337,7.0387,7.0473,7.0505,7.0563,7.0546,7.057,7.0575,7.058,7.0583,7.0435,7.0575,7.0575,7.0575,7.0574,7.0574,0,6.9895,6.9931,6.9995,7.007,7.0124,7.0117,7.0174,7.0219,7.0288,7.0336,7.0392,7.0473,7.0539,7.0576,7.0641,7.068,7.0678,7.0696,7.0692,7.0698,7.0596,7.0575,7.0696,7.0696,7.0696,7.0696,7.0696,7.0696,6.9969,7.006,7.0078,7.0188,7.0223,7.03,7.0333,7.0377,7.0416,7.0508,7.0563,7.0588,7.0632,7.0699,7.0758,7.0767,7.0789,7.0808,7.0815,7.0718,7.0706,7.0694,7.0674,7.0814,7.0814,7.0913,7.0914,7.0914]}]]